Date,TemperatureHighF,TemperatureAvgF,TemperatureLowF,DewpointHighF,DewpointAvgF,DewpointLowF,HumidityHigh,HumidityAvg,HumidityLow,PressureMaxIn,PressureMinIn,WindSpeedMaxMPH,WindSpeedAvgMPH,GustSpeedMaxMPH,PrecipitationSumIn
2013-1-1,16.0,7.8,-7.0,9.0,3.2,-12.0,87,80,70,30.45,30.29,6,-5,8,0.00
2013-1-2,9.0,-2.9,-12.0,3.0,-8.1,-18.0,84,77,67,30.49,30.43,6,4,8,0.00
2013-1-3,12.0,0.1,-11.0,3.0,-5.5,-16.0,84,76,66,30.45,30.38,8,5,11,0.00
2013-1-4,14.0,0.4,-10.0,3.0,-5.3,-16.0,83,76,61,30.41,30.33,7,4,8,0.00
2013-1-5,15.0,0.3,-9.0,5.0,-5.3,-14.0,82,76,63,30.45,30.25,8,5,9,0.00
2013-1-6,24.0,12.3,1.0,15.0,6.2,-4.0,86,76,64,30.25,30.06,10,5,14,0.00
2013-1-7,29.0,9.5,-3.0,26.0,5.7,-8.0,91,84,74,30.20,30.07,10,4,15,0.00
2013-1-8,33.0,28.1,21.0,28.0,24.4,19.0,91,85,76,30.32,30.07,18,7,27,0.00
2013-1-9,44.0,35.8,26.0,29.0,25.8,21.0,92,67,42,30.32,29.73,20,10,29,0.00
2013-1-10,41.0,28.2,19.0,31.0,23.0,16.0,92,81,49,29.75,29.54,24,13,34,0.00
2013-1-11,19.0,14.1,7.0,16.0,7.5,-1.0,88,75,57,29.99,29.59,15,9,24,0.00
2013-1-12,8.0,-0.9,-16.0,3.0,-5.9,-22.0,84,78,69,30.10,29.99,6,2,8,0.00
2013-1-13,2.0,-4.5,-16.0,-4.0,-10.2,-22.0,82,76,68,30.20,30.10,5,3,6,0.00
2013-1-14,4.0,2.3,1.0,-1.0,-3.2,-6.0,81,77,69,30.35,30.28,5,4,7,0.00
2013-1-15,9.0,3.8,1.0,4.0,-1.4,-4.0,80,78,74,30.58,30.34,7,5,9,0.00
2013-1-16,13.0,6.2,-7.0,7.0,1.7,-12.0,86,81,76,30.65,30.60,6,5,8,0.00
2013-1-17,14.0,2.0,-8.0,7.0,-2.7,-13.0,85,79,72,30.63,30.50,5,3,6,0.00
2013-1-18,12.0,1.5,-8.0,4.0,-4.2,-13.0,82,76,68,30.48,30.40,5,4,6,0.00
2013-1-19,5.0,-2.2,-5.0,0.0,-7.0,-10.0,81,80,78,30.52,30.43,6,5,8,0.00
2013-1-20,17.0,2.2,-3.0,7.0,-2.4,-7.0,84,80,62,30.48,30.42,6,4,7,0.00
2013-1-21,15.0,3.9,-7.0,6.0,-1.1,-12.0,84,79,67,30.45,30.34,6,4,8,0.00
2013-1-22,18.0,4.2,-6.0,8.0,-1.1,-11.0,85,78,64,30.38,30.29,8,5,12,0.00
2013-1-23,26.0,10.9,6.0,15.0,4.4,0.0,80,74,62,30.29,30.19,9,6,11,0.00
2013-1-24,37.0,27.4,15.0,31.0,21.5,11.0,89,77,65,30.27,30.14,10,4,15,0.00
2013-1-25,40.0,35.4,32.0,33.0,31.0,30.0,91,84,76,30.28,30.06,16,4,22,0.00
2013-1-26,43.0,37.6,34.0,35.0,33.3,32.0,92,84,72,30.06,29.80,16,7,23,0.00
2013-1-27,38.0,28.8,25.0,34.0,26.0,20.0,94,89,80,29.87,29.76,16,11,24,0.00
2013-1-28,26.0,23.4,21.0,21.0,18.9,16.0,87,82,73,29.94,29.83,14,10,24,0.00
2013-1-29,25.0,23.3,20.0,22.0,19.0,16.0,89,83,71,30.10,29.79,13,6,19,0.00
2013-1-30,36.0,30.6,23.0,31.0,26.3,17.0,87,84,76,30.13,30.05,19,14,28,0.00
2013-1-31,37.0,35.2,31.0,31.0,30.2,27.0,86,81,77,30.30,30.19,16,11,24,0.00
2013-2-1,37.0,34.0,32.0,31.0,29.6,27.0,91,83,76,30.41,30.17,18,10,23,0.00
2013-2-2,34.0,30.5,26.0,30.0,27.1,23.0,94,87,76,30.50,30.37,11,-1,13,0.00
2013-2-3,30.0,25.6,21.0,27.0,22.8,19.0,93,89,83,30.37,30.18,10,5,15,0.00
2013-2-4,38.0,30.9,27.0,27.0,24.8,22.0,93,78,60,30.20,30.09,10,4,15,0.00
2013-2-5,39.0,32.1,27.0,29.0,25.9,21.0,88,78,50,30.13,29.88,14,5,22,0.00
2013-2-6,36.0,28.6,21.0,28.0,24.5,19.0,92,84,67,30.17,29.91,15,0,21,0.00
2013-2-7,41.0,29.0,19.0,22.0,18.9,15.0,89,68,38,30.18,29.88,17,7,26,0.00
2013-2-8,34.0,29.5,26.0,30.0,22.4,17.0,93,75,60,29.87,29.69,19,8,28,0.00
2013-2-9,34.0,27.9,25.0,24.0,20.9,18.0,88,75,54,29.84,29.67,19,10,29,0.00
2013-2-10,30.0,25.0,11.0,23.0,13.2,1.0,87,62,44,30.08,29.84,21,11,31,0.00
2013-2-11,27.0,14.9,-2.0,15.0,5.0,-7.0,82,65,47,30.20,30.08,10,5,13,0.00
2013-2-12,31.0,24.2,18.0,24.0,15.7,10.0,79,69,59,30.29,30.19,15,7,22,0.00
2013-2-13,37.0,32.1,26.0,27.0,23.8,19.0,76,70,66,30.27,30.13,20,14,28,0.00
2013-2-14,36.0,30.1,22.0,27.0,24.2,20.0,90,78,63,30.37,30.16,15,8,23,0.00
2013-2-15,40.0,32.2,21.0,29.0,24.4,18.0,89,73,61,30.49,30.37,19,9,27,0.00
2013-2-16,43.0,34.8,27.0,26.0,22.8,19.0,76,61,50,30.42,29.93,18,10,32,0.00
2013-2-17,38.0,32.5,28.0,28.0,20.2,11.0,81,62,33,30.04,29.84,21,10,30,0.00
2013-2-18,36.0,27.8,19.0,21.0,17.7,12.0,87,66,44,30.10,29.90,18,7,24,0.00
2013-2-19,39.0,29.6,22.0,29.0,19.2,10.0,84,65,47,29.91,29.63,14,7,19,0.00
2013-2-20,31.0,27.6,25.0,28.0,23.3,21.0,90,83,71,29.82,29.63,18,9,29,0.00
2013-2-21,28.0,24.4,22.0,22.0,18.5,14.0,89,78,63,29.98,29.82,13,10,22,0.00
2013-2-22,33.0,27.5,22.0,24.0,22.0,19.0,91,79,64,30.09,29.90,22,12,30,0.00
2013-2-23,31.0,26.8,18.0,25.0,21.2,12.0,89,78,59,29.99,29.65,26,14,42,0.00
2013-2-24,28.0,18.3,3.0,19.0,10.7,-2.0,85,72,57,30.22,29.99,13,7,18,0.00
2013-2-25,30.0,22.5,9.0,23.0,15.1,6.0,90,74,57,30.21,29.97,19,9,27,0.00
2013-2-26,29.0,22.2,12.0,21.0,17.0,6.0,92,80,59,30.30,30.01,14,6,19,0.00
2013-2-27,32.0,19.7,5.0,17.0,11.6,1.0,90,71,48,30.40,30.30,18,7,23,0.00
2013-2-28,34.0,26.3,16.0,26.0,16.9,10.0,85,67,49,30.47,30.35,12,5,17,0.00
2013-3-1,40.0,31.6,29.0,33.0,28.1,26.0,91,87,75,30.53,30.46,9,4,12,0.00
2013-3-2,43.0,35.6,29.0,34.0,29.5,25.0,89,78,62,30.51,30.05,12,6,19,0.00
2013-3-3,44.0,38.5,29.0,36.0,29.6,20.0,87,70,52,30.05,29.80,24,13,38,0.00
2013-3-4,33.0,27.9,23.0,20.0,11.6,7.0,70,50,35,30.25,29.97,11,6,15,0.00
2013-3-5,38.0,28.8,20.0,21.0,14.5,7.0,76,55,43,30.24,29.93,14,8,20,0.00
2013-3-6,51.0,36.7,26.0,34.0,25.8,17.0,90,66,41,29.93,29.69,22,10,32,0.00
2013-3-7,40.0,34.2,28.0,27.0,22.9,19.0,82,63,44,30.04,29.92,13,7,20,0.00
2013-3-8,41.0,33.8,26.0,34.0,29.0,24.0,93,82,66,29.92,29.82,9,5,12,0.00
2013-3-9,43.0,32.5,24.0,26.0,20.1,14.0,93,64,32,30.27,29.86,19,6,24,0.00
2013-3-10,46.0,36.3,24.0,27.0,22.0,14.0,83,58,31,30.37,30.20,15,10,24,0.00
2013-3-11,50.0,42.0,38.0,37.0,25.6,15.0,74,52,34,30.20,30.10,18,11,26,0.00
2013-3-12,53.0,40.8,31.0,34.0,30.3,25.0,81,66,47,30.29,30.16,20,11,29,0.00
2013-3-13,60.0,42.5,29.0,35.0,31.7,26.0,91,68,38,30.33,30.22,17,7,26,0.00
2013-3-14,60.0,45.1,29.0,37.0,32.2,26.0,90,64,36,30.31,30.13,18,6,26,0.00
2013-3-15,58.0,48.2,35.0,34.0,30.6,28.0,85,52,31,30.14,30.01,18,10,28,0.00
2013-3-16,55.0,44.6,35.0,35.0,25.9,19.0,85,49,24,30.04,29.80,16,11,28,0.00
2013-3-17,41.0,36.5,30.0,37.0,15.2,-5.0,87,46,15,29.98,29.71,24,15,42,0.00
2013-3-18,43.0,33.3,24.0,16.0,14.0,10.0,65,46,27,30.08,29.92,22,12,35,0.00
2013-3-19,48.0,35.8,22.0,19.0,11.2,-3.0,74,40,11,30.26,30.07,14,6,20,0.00
2013-3-20,46.0,40.5,34.0,41.0,24.8,-99.9,92,64,19,30.12,29.69,22,10,34,0.00
2013-3-21,42.0,34.9,29.0,37.0,21.5,13.0,89,59,38,29.96,29.71,24,17,36,0.00
2013-3-22,32.0,26.3,23.0,22.0,19.4,16.0,89,75,54,30.03,29.88,13,8,19,0.00
2013-3-23,32.0,21.9,6.0,21.0,15.3,2.0,89,76,47,30.21,30.02,15,6,21,0.00
2013-3-24,35.0,25.0,15.0,22.0,13.8,2.0,90,66,25,30.25,30.18,9,4,13,0.00
2013-3-25,44.0,29.7,17.0,23.0,11.8,7.0,69,49,27,30.21,30.05,11,6,15,0.00
2013-3-26,46.0,36.0,30.0,36.0,27.6,18.0,92,72,46,30.05,29.96,13,6,19,0.00
2013-3-27,55.0,41.5,28.0,36.0,31.3,26.0,93,70,33,30.07,30.00,9,4,15,0.00
2013-3-28,62.0,46.7,31.0,35.0,30.8,27.0,87,58,27,30.11,30.02,16,6,24,0.00
2013-3-29,62.0,50.7,39.0,39.0,33.0,28.0,76,52,28,30.20,30.09,18,10,25,0.00
2013-3-30,60.0,46.7,30.0,35.0,28.3,-99.9,87,54,26,30.26,30.16,12,5,17,0.00
2013-3-31,66.0,48.1,28.0,32.0,22.8,2.0,82,43,8,30.17,29.95,12,5,15,0.00
2013-4-1,61.0,47.4,29.0,40.0,31.7,23.0,85,56,33,30.00,29.91,14,7,20,0.00
2013-4-2,63.0,50.1,38.0,41.0,35.8,26.0,89,62,25,30.10,29.99,11,6,15,0.00
2013-4-3,65.0,53.5,43.0,35.0,30.3,26.0,59,42,24,30.17,30.07,16,9,21,0.00
2013-4-4,68.0,56.0,39.0,38.0,33.8,30.0,80,46,26,30.11,29.89,16,8,24,0.00
2013-4-5,57.0,50.5,46.0,44.0,34.8,25.0,87,57,29,30.01,29.89,26,16,38,0.00
2013-4-6,55.0,46.0,33.0,37.0,32.6,28.0,82,60,41,30.00,29.94,20,11,32,0.00
2013-4-7,52.0,43.6,38.0,42.0,34.7,27.0,85,71,38,29.95,29.67,24,12,38,0.00
2013-4-8,41.0,37.4,31.0,35.0,27.4,12.0,91,69,43,29.79,29.58,30,15,43,0.00
2013-4-9,48.0,35.6,26.0,17.0,12.4,8.0,61,39,27,30.15,29.80,26,18,37,0.00
2013-4-10,54.0,39.3,17.0,37.0,22.7,11.0,81,53,30,30.18,29.88,18,9,24,0.00
2013-4-11,55.0,46.1,38.0,38.0,29.5,16.0,80,54,33,30.03,29.88,19,12,30,0.00
2013-4-12,55.0,43.5,27.0,24.0,19.6,13.0,73,41,18,30.08,29.78,17,8,25,0.00
2013-4-13,53.0,46.1,33.0,37.0,18.9,2.0,74,36,15,29.79,29.53,32,17,53,0.00
2013-4-14,44.0,33.8,22.0,17.0,8.7,2.0,65,37,19,29.87,29.73,15,9,23,0.00
2013-4-15,42.0,34.8,29.0,26.0,21.7,8.0,82,59,31,29.79,29.70,14,6,21,0.00
2013-4-16,43.0,33.0,24.0,22.0,12.8,5.0,80,45,26,30.04,29.77,24,17,31,0.00
2013-4-17,42.0,31.7,22.0,8.0,5.2,1.0,51,34,20,30.23,30.04,21,14,29,0.00
2013-4-18,50.0,34.0,9.0,19.0,9.4,1.0,70,38,22,30.31,30.20,15,8,22,0.00
2013-4-19,49.0,42.2,36.0,40.0,30.2,19.0,86,63,41,30.21,29.96,19,13,29,0.00
2013-4-20,54.0,45.3,39.0,39.0,34.6,27.0,91,68,37,30.09,29.98,21,13,36,0.00
2013-4-21,58.0,47.8,38.0,30.0,25.1,16.0,64,43,19,30.12,29.91,25,15,41,0.00
2013-4-22,44.0,38.0,30.0,31.0,19.3,6.0,92,51,25,30.26,29.94,21,13,30,0.00
2013-4-23,46.0,33.7,15.0,20.0,10.2,5.0,73,40,18,30.30,30.11,11,6,17,0.00
2013-4-24,54.0,39.2,19.0,20.0,14.1,1.0,74,40,11,30.31,30.11,12,6,15,0.00
2013-4-25,63.0,46.8,22.0,23.0,16.2,8.0,75,34,11,30.12,29.96,17,8,26,0.00
2013-4-26,67.0,51.8,29.0,27.0,21.8,14.0,67,34,17,30.27,30.05,14,7,20,0.00
2013-4-27,73.0,56.9,35.0,32.0,26.8,17.0,70,35,12,30.29,30.05,20,10,30,0.00
2013-4-28,67.0,56.8,47.0,33.0,26.9,19.0,53,33,20,30.08,29.92,23,14,36,0.00
2013-4-29,61.0,53.1,45.0,32.0,28.1,23.0,56,39,26,29.97,29.72,32,18,51,0.00
2013-4-30,50.0,41.0,32.0,31.0,20.8,10.0,91,47,21,30.11,29.76,19,12,26,0.00
2013-5-1,51.0,38.5,27.0,30.0,16.2,2.0,90,47,13,30.57,30.11,15,6,24,0.00
2013-5-2,59.0,42.2,21.0,25.0,16.4,10.0,73,40,14,30.65,30.36,9,4,14,0.00
2013-5-3,65.0,52.0,37.0,33.0,21.1,10.0,61,33,12,30.36,30.03,18,5,26,0.00
2013-5-4,59.0,51.1,44.0,40.0,34.3,28.0,73,53,32,30.07,29.99,19,12,30,0.00
2013-5-5,68.0,55.1,40.0,38.0,34.4,30.0,79,48,25,30.02,29.90,17,9,25,0.00
2013-5-6,69.0,55.0,40.0,46.0,36.9,32.0,78,52,28,29.97,29.87,32,8,41,0.00
2013-5-7,61.0,54.1,47.0,46.0,42.9,39.0,83,66,45,30.02,29.94,19,7,28,0.00
2013-5-8,68.0,53.7,39.0,46.0,39.9,35.0,89,63,30,30.14,30.02,24,7,31,0.00
2013-5-9,74.0,56.0,36.0,44.0,38.4,32.0,91,56,22,30.21,30.09,22,5,28,0.00
2013-5-10,75.0,58.1,39.0,43.0,33.2,-99.9,85,48,15,30.29,30.20,14,6,20,0.00
2013-5-11,78.0,59.2,39.0,42.0,35.2,-99.9,79,46,17,30.35,30.20,13,5,21,0.00
2013-5-12,82.0,65.5,43.0,42.0,37.0,33.0,76,39,17,30.28,30.10,15,7,22,0.00
2013-5-13,86.0,70.4,51.0,45.0,38.3,33.0,68,34,15,30.17,29.96,15,8,26,0.00
2013-5-14,76.0,66.1,56.0,43.0,38.3,31.0,59,37,21,30.11,29.93,19,13,28,0.00
2013-5-15,77.0,64.4,55.0,42.0,38.4,31.0,57,39,21,30.03,29.84,15,10,28,0.00
2013-5-16,69.0,57.7,52.0,43.0,25.6,-99.9,71,45,32,29.93,29.85,16,11,28,0.00
2013-5-17,59.0,52.5,50.0,47.0,40.5,-99.9,86,73,53,29.95,29.90,14,8,22,0.00
2013-5-20,64.0,59.1,52.0,46.0,41.6,36.0,74,53,36,30.22,30.10,10,5,14,0.00
2013-5-21,70.0,58.8,43.0,46.0,39.4,34.0,84,52,27,30.12,29.71,19,8,28,0.00
2013-5-22,61.0,51.2,43.0,41.0,30.5,19.0,65,46,27,29.96,29.69,18,12,29,0.00
2013-5-23,62.0,48.5,37.0,33.0,30.0,24.0,81,51,29,29.98,29.80,18,7,26,0.00
2013-5-24,67.0,54.0,36.0,33.0,22.6,15.0,59,32,13,30.10,29.92,16,9,25,0.00
2013-5-25,67.0,53.5,37.0,38.0,31.4,24.0,74,45,23,29.98,29.89,16,8,24,0.00
2013-5-26,71.0,56.0,40.0,40.0,34.2,29.0,79,48,22,29.99,29.87,19,5,33,0.00
2013-5-27,63.0,54.9,45.0,41.0,34.6,23.0,74,49,21,30.05,29.87,18,10,27,0.00
2013-5-28,54.0,50.0,42.0,48.0,42.7,37.0,90,76,53,29.92,29.80,13,7,18,0.00
2013-5-29,61.0,52.9,45.0,45.0,39.5,33.0,92,63,37,29.85,29.77,20,12,30,0.00
2013-5-30,63.0,52.6,42.0,40.0,33.3,26.0,79,51,26,30.01,29.83,21,13,33,0.00
2013-5-31,65.0,53.1,42.0,38.0,32.0,23.0,73,47,26,30.24,30.01,16,11,24,0.00
2013-6-1,71.0,55.9,35.0,41.0,31.4,21.0,85,43,16,30.29,30.05,13,6,19,0.00
2013-6-2,81.0,65.6,42.0,40.0,33.8,26.0,77,33,15,30.05,29.71,20,9,30,0.00
2013-6-3,68.0,55.7,39.0,39.0,33.2,28.0,87,46,23,30.06,29.88,18,8,26,0.00
2013-6-4,70.0,56.2,39.0,41.0,34.3,27.0,80,47,23,30.15,30.00,13,6,18,0.00
2013-6-5,76.0,59.3,40.0,43.0,36.3,27.0,84,48,17,30.19,30.05,10,6,15,0.00
2013-6-6,79.0,64.5,46.0,54.0,39.8,31.0,80,43,20,30.13,30.02,17,5,29,0.00
2013-6-7,83.0,65.6,47.0,51.0,45.5,39.0,90,54,26,30.07,29.83,20,2,29,0.00
2013-6-8,78.0,67.7,50.0,51.0,40.4,28.0,72,40,19,30.07,29.88,17,10,25,0.00
2013-6-9,85.0,72.1,58.0,45.0,39.2,32.0,50,31,20,30.05,29.85,19,11,28,0.00
2013-6-10,90.0,75.8,60.0,50.0,40.0,18.0,67,31,7,29.88,29.70,22,10,31,0.00
2013-6-11,79.0,69.9,61.0,47.0,41.7,27.0,53,37,18,29.99,29.73,18,13,27,0.00
2013-6-12,76.0,65.0,57.0,55.0,46.8,40.0,79,53,31,30.10,29.97,16,8,23,0.13
2013-6-13,72.0,60.4,53.0,51.0,42.8,30.0,86,55,24,30.08,29.90,21,10,37,0.01
2013-6-14,63.0,53.1,43.0,38.0,33.4,26.0,69,49,24,30.25,30.07,21,12,31,0.00
2013-6-15,77.0,56.8,36.0,45.0,31.7,19.0,76,45,12,30.17,30.01,9,5,14,0.00
2013-6-16,85.0,65.1,43.0,48.0,37.6,27.0,79,43,13,30.09,29.98,13,6,22,0.00
2013-6-17,85.0,66.7,48.0,51.0,39.8,25.0,77,43,11,30.12,29.96,13,6,16,0.00
2013-6-18,86.0,68.0,47.0,46.0,37.8,25.0,80,38,11,29.96,29.63,12,6,16,0.00
2013-6-19,69.0,60.4,47.0,43.0,36.1,25.0,67,41,19,30.06,29.61,23,13,38,0.00
2013-7-10,-200.0,0.0,200.0,-99.9,-99.9,-99.9,0,0,100,30.14,30.14,4,3,4,0.00
2013-7-13,67.0,67.0,67.0,48.0,48.0,48.0,50,50,50,29.99,29.99,12,12,15,0.00
2013-7-14,82.0,82.0,82.0,49.0,49.0,49.0,31,31,31,30.16,30.16,7,7,12,0.00
2013-11-9,-200.0,0.0,200.0,-99.9,-99.9,-99.9,0,0,100,30.21,30.21,5,5,6,0.00
2013-11-11,30.0,30.0,30.0,23.0,23.0,23.0,75,75,75,30.28,30.28,3,3,4,0.00
2013-11-30,-200.0,0.0,200.0,-99.9,-99.9,-99.9,0,0,100,30.29,30.29,11,11,15,0.00
2013-12-7,-200.0,0.0,200.0,-99.9,-99.9,-99.9,0,0,100,29.84,29.84,4,4,6,0.00